Date String (YYYY-MM-DD hh:mm:ss) UTC,Instrument flags,Ambient pressure (hPa),Sample flow (lpm),Bypass flow (lpm),Sample temperature (°C),Ambient temperature (°C),ASC tube jacket temperature (°C),LED temperature (°C),Box temperature (°C),Sample RH (%),Span deviation,Mass concentration (μg/m³),Mass concentration (μg/m³),Mass concentration (μg/m³)
DateTimeUTC,F1_M11,P_M11,Q1_M11,Q2_M11,T1_M11,T2_M11,T3_M11,T4_M11,T5_M11,U1_M11,ZSPAN_M11,X0_M11,X2_M11,X1_M11
2022-05-04 22:00:00,,0824.4,5.01,0.00,25.2,24.6,00.0,34.1,27.1,23.0,0000.0,0004.28,0002.96,0002.47
2022-05-04 22:01:00,,0824.6,4.99,0.00,25.2,24.5,00.0,34.1,27.1,23.2,0000.0,0004.20,0002.93,0002.45
2022-05-04 22:02:00,,0824.5,5.01,0.00,25.2,24.5,00.0,34.1,27.0,23.2,0000.0,0004.05,0002.87,0002.41
2022-05-04 22:03:00,,0824.5,4.99,0.00,25.2,24.5,00.0,34.1,27.0,23.1,0000.0,0003.89,0002.80,0002.38
2022-05-04 22:04:00,,0824.5,5.00,0.00,25.2,24.5,00.0,34.1,27.0,23.7,0000.0,0003.95,0002.79,0002.34
2022-05-04 22:05:00,,0824.5,5.01,0.00,25.2,24.5,00.0,34.1,27.1,24.2,0000.0,0003.94,0002.80,0002.30
2022-05-04 22:06:00,,0824.5,4.98,0.00,25.2,24.5,00.0,34.1,27.1,23.4,0000.0,0003.96,0002.83,0002.26
2022-05-04 22:07:00,,0824.5,5.00,0.00,25.2,24.5,00.0,34.1,27.1,23.1,0000.0,0003.94,0002.78,0002.21
2022-05-04 22:08:00,,0824.6,4.99,0.00,25.2,24.6,00.0,34.1,27.1,23.3,0000.0,0003.87,0002.72,0002.16
2022-05-04 22:09:00,,0824.6,5.01,0.00,25.2,24.6,00.0,34.1,27.1,23.7,0000.0,0003.78,0002.64,0002.11
2022-05-04 22:10:00,,0824.6,4.99,0.00,25.2,24.6,00.0,34.1,27.2,23.8,0000.0,0003.89,0002.63,0002.07
2022-05-04 22:11:00,,0824.6,5.01,0.00,25.2,24.6,00.0,34.1,27.2,24.0,0000.0,0003.84,0002.55,0002.00
2022-05-04 22:12:00,,0824.5,4.99,0.00,25.3,24.6,00.0,34.1,27.2,23.9,0000.0,0003.87,0002.45,0001.90
2022-05-04 22:13:00,,0824.6,5.00,0.00,25.3,24.6,00.0,34.1,27.1,23.6,0000.0,0004.07,0002.43,0001.81
2022-05-04 22:14:00,,0824.5,5.01,0.00,25.3,24.6,00.0,34.1,27.2,23.6,0000.0,0004.15,0002.39,0001.72
2022-05-04 22:15:00,,0824.5,5.00,0.00,25.3,24.6,00.0,34.1,27.2,23.6,0000.0,0004.12,0002.31,0001.62
2022-05-04 22:16:00,,0824.5,4.99,0.00,25.3,24.6,00.0,34.2,27.2,23.7,0000.0,0003.90,0002.19,0001.52
2022-05-04 22:17:00,,0824.5,5.00,0.00,25.3,24.7,00.0,34.2,27.2,24.2,0000.0,0003.59,0002.00,0001.40
2022-05-04 22:18:00,,0824.5,5.00,0.00,25.3,24.7,00.0,34.2,27.3,24.0,0000.0,0003.53,0001.93,0001.31
2022-05-04 22:19:00,,0824.5,4.99,0.00,25.3,24.7,00.0,34.2,27.3,23.8,0000.0,0003.55,0001.89,0001.21
2022-05-04 22:20:00,,0824.5,5.00,0.00,25.4,24.7,00.0,34.2,27.3,23.7,0000.0,0003.52,0001.81,0001.11
2022-05-04 22:21:00,,0824.6,5.01,0.00,25.4,24.7,00.0,34.2,27.3,23.5,0000.0,0003.31,0001.70,0001.01
2022-05-04 22:22:00,,0824.6,4.99,0.00,25.4,24.7,00.0,34.2,27.3,23.5,0000.0,0003.15,0001.64,0000.96
2022-05-04 22:23:00,,0824.6,5.00,0.00,25.4,24.8,00.0,34.2,27.3,23.1,0000.0,0002.90,0001.56,0000.92
2022-05-04 22:24:00,,0824.6,5.00,0.00,25.4,24.8,00.0,34.3,27.4,23.0,0000.0,0002.74,0001.53,0000.90
2022-05-04 22:25:00,,0824.6,5.00,0.00,25.5,24.8,00.0,34.3,27.4,23.3,0000.0,0002.56,0001.45,0000.86
2022-05-04 22:26:00,,0824.6,5.00,0.00,25.5,24.8,00.0,34.3,27.4,23.5,0000.0,0002.46,0001.39,0000.84
2022-05-04 22:27:00,,0824.6,5.00,0.00,25.5,24.8,00.0,34.3,27.4,23.7,0000.0,0002.72,0001.45,0000.83
2022-05-04 22:28:00,,0824.6,4.99,0.00,25.5,24.8,00.0,34.3,27.4,23.6,0000.0,0002.90,0001.51,0000.83
2022-05-04 22:29:00,,0824.6,5.01,0.00,25.5,24.8,00.0,34.3,27.4,23.6,0000.0,0002.94,0001.51,0000.83
2022-05-04 22:30:00,,0824.6,4.99,0.00,25.5,24.8,00.0,34.3,27.4,23.6,0000.0,0002.84,0001.46,0000.82
2022-05-04 22:31:00,,0824.6,5.00,0.00,25.5,24.8,00.0,34.4,27.5,23.6,0000.0,0002.72,0001.42,0000.82
2022-05-04 22:32:00,,0824.6,5.00,0.00,25.5,24.8,00.0,34.4,27.5,23.7,0000.0,0002.81,0001.45,0000.84
2022-05-04 22:33:00,,0824.6,5.00,0.00,25.5,24.8,00.0,34.4,27.5,22.6,0000.0,0002.91,0001.46,0000.83
2022-05-04 22:34:00,,0824.6,4.99,0.00,25.5,24.8,00.0,34.4,27.5,22.3,0000.0,0002.96,0001.47,0000.83
2022-05-04 22:35:00,,0824.6,5.00,0.00,25.5,24.8,00.0,34.4,27.5,22.0,0000.0,0002.95,0001.43,0000.83
2022-05-04 22:36:00,,0824.5,5.00,0.00,25.6,24.8,00.0,34.4,27.5,21.9,0000.0,0003.01,0001.42,0000.82
2022-05-04 22:37:00,,0824.5,4.99,0.00,25.6,24.8,00.0,34.4,27.5,21.9,0000.0,0003.26,0001.43,0000.82
2022-05-04 22:38:00,,0824.5,5.00,0.00,25.6,24.8,00.0,34.4,27.5,21.4,0000.0,0003.45,0001.36,0000.81
2022-05-04 22:39:00,,0824.5,5.01,0.00,25.6,24.8,00.0,34.4,27.5,20.7,0000.0,0003.31,0001.29,0000.79
2022-05-04 22:40:00,,0824.6,4.99,0.00,25.6,24.8,00.0,34.4,27.5,21.1,0000.0,0003.39,0001.31,0000.77
2022-05-04 22:41:00,,0824.5,5.01,0.00,25.6,24.8,00.0,34.4,27.5,21.3,0000.0,0003.56,0001.33,0000.76
2022-05-04 22:42:00,,0824.6,4.99,0.00,25.6,24.8,00.0,34.5,27.5,21.0,0000.0,0003.69,0001.34,0000.75
2022-05-04 22:43:00,,0824.6,5.01,0.00,25.6,24.8,00.0,34.5,27.5,20.4,0000.0,0003.59,0001.30,0000.74
2022-05-04 22:44:00,,0824.6,4.99,0.00,25.6,24.8,00.0,34.5,27.5,21.7,0000.0,0003.43,0001.26,0000.72
2022-05-04 22:45:00,,0824.6,5.01,0.00,25.6,24.8,00.0,34.5,27.5,21.8,0000.0,0003.37,0001.23,0000.71
2022-05-04 22:46:00,,0824.6,4.99,0.00,25.6,24.8,00.0,34.5,27.5,22.2,0000.0,0003.29,0001.23,0000.70
2022-05-04 22:47:00,,0824.7,5.01,0.00,25.6,24.8,00.0,34.5,27.5,22.4,0000.0,0003.06,0001.21,0000.71
2022-05-04 22:48:00,,0824.9,4.99,0.00,25.6,24.8,00.0,34.5,27.5,22.5,0000.0,0002.92,0001.23,0000.71
2022-05-04 22:49:00,,0824.9,4.99,0.00,25.6,24.8,00.0,34.5,27.5,23.0,0000.0,0002.44,0001.20,0000.71
2022-05-04 22:50:00,,0824.9,5.01,0.00,25.6,24.8,00.0,34.5,27.5,23.5,0000.0,0002.47,0001.22,0000.72
2022-05-04 22:51:00,,0824.9,4.99,0.00,25.6,24.8,00.0,34.5,27.5,23.6,0000.0,0002.35,0001.18,0000.72
2022-05-04 22:52:00,,0824.9,5.00,0.00,25.6,24.8,00.0,34.5,27.5,23.9,0000.0,0002.09,0001.13,0000.73
2022-05-04 22:53:00,,0824.8,5.01,0.00,25.6,24.8,00.0,34.5,27.5,24.2,0000.0,0001.94,0001.11,0000.73
2022-05-04 22:54:00,,0824.9,4.99,0.00,25.6,24.8,00.0,34.5,27.5,24.3,0000.0,0001.97,0001.14,0000.74
2022-05-04 22:55:00,,0824.9,5.00,0.00,25.6,24.9,00.0,34.5,27.5,25.0,0000.0,0002.09,0001.19,0000.76
2022-05-04 22:56:00,,0824.9,4.99,0.00,25.6,24.9,00.0,34.5,27.5,25.6,0000.0,0002.32,0001.30,0000.80
2022-05-04 22:57:00,,0824.9,5.01,0.00,25.6,24.9,00.0,34.5,27.5,24.9,0000.0,0002.66,0001.36,0000.83
2022-05-04 22:58:00,,0824.9,4.99,0.00,25.6,24.9,00.0,34.5,27.5,24.5,0000.0,0002.90,0001.43,0000.87
2022-05-04 22:59:00,,0824.9,5.01,0.00,25.7,24.9,00.0,34.5,27.5,24.4,0000.0,0002.93,0001.46,0000.92
